Overview Statistics Trail Chart Weather Telemetry Raw packets
 

This is the latest recevied weather packets stored in our database for station/object KL7AF. If no packets are shown the sender has not sent any weather packets the latest 10 day(s).

<< 19 20 21 22 23 24 25 >>
Time Temp. Humidity Pressure Rain* Wind** Luminosity Snow
1788480890 31.67° C 72% 1076.4 hPa 0 mm - 1 W/m² -
1788480590 31.67° C 72% 1076.3 hPa 0 mm - 1 W/m² -
1788480289 32.22° C 67% 1016.5 hPa 0 mm - 3 W/m² -
1788479989 32.22° C 67% 1076.2 hPa 0 mm - 3 W/m² -
1788479688 32.22° C 66% 1076.1 hPa 0 mm - 4 W/m² -
1788479388 32.78° C 65% 1075.9 hPa 0 mm - 7 W/m² -
1788479087 33.33° C 63% 1016.4 hPa 0 mm - 8 W/m² -
1788478787 33.33° C 63% 1075.8 hPa 0 mm - 9 W/m² -
1788478487 33.89° C 60% 1075.8 hPa 0 mm - 11 W/m² -
1788478186 33.89° C 58% 1075.7 hPa 0 mm - 12 W/m² -
1788477886 34.44° C 56% 1075.6 hPa 0 mm - 15 W/m² -
1788477585 34.44° C 57% 1075.6 hPa 0 mm - 16 W/m² -
1788477285 35° C 57% 1075.5 hPa 0 mm - 17 W/m² -
1788476984 35° C 56% 1075.4 hPa 0 mm - 20 W/m² -
1788476684 35.56° C 56% 1075.2 hPa 0 mm - 20 W/m² -
1788476383 35.56° C 55% 1075.2 hPa 0 mm - 22 W/m² -
1788476082 35.56° C 54% 1075.2 hPa 0 mm - 24 W/m² -
1788475782 36.11° C 53% 1075.1 hPa 0 mm - 28 W/m² -
1788475481 36.11° C 52% 1075 hPa 0 mm - 29 W/m² -
1788475180 36.11° C 54% 1075 hPa 0 mm - 31 W/m² -
1788474879 36.11° C 51% 1074.9 hPa 0 mm - 38 W/m² -
1788474579 36.11° C 54% 1074.9 hPa 0 mm - 33 W/m² -
1788474278 36.11° C 53% 1074.9 hPa 0 mm - 39 W/m² -
1788473978 36.11° C 52% 1074.9 hPa 0 mm - 37 W/m² -
1788473678 36.11° C 54% 1074.9 hPa 0 mm - 41 W/m² -

* Rain latest hour (hover to see other rain measurements)
** Current wind speed in m/s (hover to see current wind gust speed)